date,time,SUV Intensity [MED/Hr],UV Index,Daily total [MED],Since Last [MED]
01/07/2023,23:58:27,0.001,0.0,10.849,10.849
01/07/2023,23:59:28,0.002,0.0,10.849,0.0
02/07/2023,00:00:27,0.000,0.0,0.0,-10.849
02/07/2023,00:01:27,-0.001,0.0,0.0,0.0
02/07/2023,00:02:27,0.000,0.0,0.0,0.0
02/07/2023,00:03:27,0.000,0.0,0.0,0.0
02/07/2023,00:04:27,-0.001,0.0,0.0,0.0
02/07/2023,00:05:27,0.000,0.0,0.0,0.0
02/07/2023,00:06:27,0.000,0.0,0.0,0.0
02/07/2023,00:07:27,0.000,0.0,0.0,0.0
02/07/2023,00:08:27,0.000,0.0,0.0,0.0
02/07/2023,00:09:28,0.001,0.0,0.0,0.0
02/07/2023,00:10:27,0.001,0.0,0.0,0.0
02/07/2023,00:11:27,0.000,0.0,0.0,0.0
02/07/2023,00:12:27,0.000,0.0,0.0,0.0
02/07/2023,00:13:28,0.001,0.0,0.0,0.0
02/07/2023,00:14:27,0.000,0.0,0.0,0.0
02/07/2023,00:15:27,-0.000,0.0,0.0,0.0
02/07/2023,00:16:27,0.000,0.0,0.0,0.0
02/07/2023,00:17:27,0.000,0.0,0.0,0.0
02/07/2023,00:18:27,-0.001,0.0,0.0,0.0
02/07/2023,00:19:27,0.001,0.0,0.0,0.0
02/07/2023,00:20:27,0.000,0.0,0.0,0.0
02/07/2023,00:21:27,0.001,0.0,0.0,0.0
02/07/2023,00:22:27,0.000,0.0,0.0,0.0
02/07/2023,00:23:28,-0.000,0.0,0.0,0.0
02/07/2023,00:24:27,-0.001,0.0,0.0,0.0
02/07/2023,00:25:27,0.001,0.0,0.0,0.0
02/07/2023,00:26:27,0.000,0.0,0.0,0.0
02/07/2023,00:27:28,-0.001,0.0,0.0,0.0
02/07/2023,00:28:27,0.000,0.0,0.0,0.0
02/07/2023,00:29:27,-0.001,0.0,0.0,0.0
02/07/2023,00:30:27,0.000,0.0,0.0,0.0
02/07/2023,00:31:27,0.000,0.0,0.0,0.0
02/07/2023,00:32:28,0.000,0.0,0.0,0.0
02/07/2023,00:33:27,0.000,0.0,0.0,0.0
02/07/2023,00:34:27,-0.001,0.0,0.0,0.0
02/07/2023,00:35:27,-0.000,0.0,0.0,0.0
02/07/2023,00:36:27,0.000,0.0,0.0,0.0
02/07/2023,00:37:27,0.000,0.0,0.0,0.0
02/07/2023,00:38:27,0.000,0.0,0.0,0.0
02/07/2023,00:39:28,0.001,0.0,0.0,0.0
02/07/2023,00:40:27,0.000,0.0,0.0,0.0
02/07/2023,00:41:28,0.001,0.0,0.0,0.0
02/07/2023,00:42:28,0.000,0.0,0.0,0.0
02/07/2023,00:43:27,0.000,0.0,0.0,0.0
02/07/2023,00:44:26,0.000,0.0,0.0,0.0
02/07/2023,00:45:49,0.000,0.0,0.0,0.0
02/07/2023,00:47:27,0.000,0.0,0.0,0.0
02/07/2023,00:48:29,0.000,0.0,0.0,0.0
02/07/2023,00:49:28,0.000,0.0,0.0,0.0
02/07/2023,00:50:27,0.000,0.0,0.0,0.0
02/07/2023,00:51:27,0.000,0.0,0.0,0.0
02/07/2023,00:52:27,0.001,0.0,0.0,0.0
02/07/2023,00:53:28,0.001,0.0,0.0,0.0
02/07/2023,00:54:27,0.000,0.0,0.0,0.0
02/07/2023,00:55:28,0.000,0.0,0.0,0.0
02/07/2023,00:56:27,0.000,0.0,0.0,0.0
02/07/2023,00:57:27,0.001,0.0,0.0,0.0
02/07/2023,00:58:27,-0.001,0.0,0.0,0.0
02/07/2023,00:59:27,0.001,0.0,0.0,0.0
02/07/2023,01:00:27,0.001,0.0,0.0,0.0
02/07/2023,01:01:27,0.000,0.0,0.0,0.0
02/07/2023,01:02:28,0.001,0.0,0.0,0.0
02/07/2023,01:03:27,0.000,0.0,0.0,0.0
02/07/2023,01:04:27,0.001,0.0,0.0,0.0
02/07/2023,01:05:28,0.001,0.0,0.0,0.0
02/07/2023,01:06:28,0.001,0.0,0.0,0.0
02/07/2023,01:07:27,0.000,0.0,0.0,0.0
02/07/2023,01:08:27,0.000,0.0,0.0,0.0
02/07/2023,01:09:27,0.000,0.0,0.0,0.0
02/07/2023,01:10:27,0.000,0.0,0.0,0.0
02/07/2023,01:11:27,0.000,0.0,0.0,0.0
02/07/2023,01:12:27,-0.000,0.0,0.0,0.0
02/07/2023,01:13:27,-0.000,0.0,0.0,0.0
02/07/2023,01:14:28,0.000,0.0,0.0,0.0
02/07/2023,01:15:27,0.000,0.0,0.0,0.0
02/07/2023,01:16:28,0.001,0.0,0.0,0.0
02/07/2023,01:17:27,0.000,0.0,0.0,0.0
02/07/2023,01:18:27,0.001,0.0,0.0,0.0
02/07/2023,01:19:27,0.001,0.0,0.0,0.0
02/07/2023,01:20:29,0.000,0.0,0.0,0.0
02/07/2023,01:21:27,0.000,0.0,0.0,0.0
02/07/2023,01:22:27,-0.000,0.0,0.0,0.0
02/07/2023,01:23:27,0.000,0.0,0.0,0.0
02/07/2023,01:24:27,0.000,0.0,0.0,0.0
02/07/2023,01:25:27,0.000,0.0,0.0,0.0
02/07/2023,01:26:27,0.000,0.0,0.0,0.0
02/07/2023,01:27:27,0.001,0.0,0.0,0.0
02/07/2023,01:28:28,0.001,0.0,0.0,0.0
02/07/2023,01:29:27,0.000,0.0,0.0,0.0
02/07/2023,01:30:27,0.000,0.0,0.0,0.0
02/07/2023,01:31:28,0.001,0.0,0.0,0.0
02/07/2023,01:32:27,0.000,0.0,0.0,0.0
02/07/2023,01:33:28,0.000,0.0,0.0,0.0
02/07/2023,01:34:27,0.000,0.0,0.0,0.0
02/07/2023,01:35:27,0.001,0.0,0.0,0.0
02/07/2023,01:36:28,0.000,0.0,0.0,0.0
02/07/2023,01:37:27,0.001,0.0,0.0,0.0
02/07/2023,01:38:28,0.000,0.0,0.0,0.0
02/07/2023,01:39:27,0.000,0.0,0.0,0.0
02/07/2023,01:40:27,0.001,0.0,0.0,0.0
02/07/2023,01:41:28,0.002,0.0,0.0,0.0
02/07/2023,01:42:27,0.001,0.0,0.0,0.0
02/07/2023,01:43:27,0.000,0.0,0.0,0.0
02/07/2023,01:44:27,0.000,0.0,0.0,0.0
02/07/2023,01:45:27,0.000,0.0,0.0,0.0
02/07/2023,01:46:28,-0.001,0.0,0.0,0.0
02/07/2023,01:47:27,0.000,0.0,0.0,0.0
02/07/2023,01:48:28,-0.000,0.0,0.0,0.0
02/07/2023,01:49:28,0.001,0.0,0.0,0.0
02/07/2023,01:50:27,0.000,0.0,0.0,0.0
02/07/2023,01:51:27,0.002,0.0,0.0,0.0
02/07/2023,01:52:27,0.000,0.0,0.0,0.0
02/07/2023,01:53:28,0.001,0.0,0.0,0.0
02/07/2023,01:54:28,0.000,0.0,0.0,0.0
02/07/2023,01:55:27,0.001,0.0,0.0,0.0
02/07/2023,01:56:27,0.001,0.0,0.0,0.0
02/07/2023,01:57:28,0.001,0.0,0.0,0.0
02/07/2023,01:58:27,-0.000,0.0,0.0,0.0
02/07/2023,01:59:27,0.000,0.0,0.0,0.0
02/07/2023,02:00:27,0.001,0.0,0.0,0.0
02/07/2023,02:01:28,-0.000,0.0,0.0,0.0
02/07/2023,02:02:28,0.000,0.0,0.0,0.0
02/07/2023,02:03:27,0.001,0.0,0.0,0.0
02/07/2023,02:04:28,0.002,0.0,0.0,0.0
02/07/2023,02:05:27,-0.000,0.0,0.0,0.0
02/07/2023,02:06:27,0.000,0.0,0.0,0.0
02/07/2023,02:07:27,0.001,0.0,0.0,0.0
02/07/2023,02:08:27,0.001,0.0,0.0,0.0
02/07/2023,02:09:28,0.001,0.0,0.0,0.0
02/07/2023,02:10:27,0.001,0.0,0.0,0.0
02/07/2023,02:11:27,0.000,0.0,0.0,0.0
02/07/2023,02:12:28,-0.001,0.0,0.0,0.0
02/07/2023,02:13:27,0.001,0.0,0.0,0.0
02/07/2023,02:14:27,0.001,0.0,0.0,0.0
02/07/2023,02:15:27,0.001,0.0,0.0,0.0
02/07/2023,02:16:27,-0.000,0.0,0.0,0.0
02/07/2023,02:17:27,0.001,0.0,0.0,0.0
02/07/2023,02:18:27,0.000,0.0,0.0,0.0
02/07/2023,02:19:28,0.000,0.0,0.0,0.0
02/07/2023,02:20:27,0.001,0.0,0.0,0.0
02/07/2023,02:21:28,0.000,0.0,0.0,0.0
02/07/2023,02:22:27,0.001,0.0,0.0,0.0
02/07/2023,02:23:28,0.000,0.0,0.0,0.0
02/07/2023,02:24:27,0.001,0.0,0.0,0.0
02/07/2023,02:25:28,0.000,0.0,0.0,0.0
02/07/2023,02:26:27,0.001,0.0,0.0,0.0
02/07/2023,02:27:28,-0.000,0.0,0.0,0.0
02/07/2023,02:28:27,0.001,0.0,0.0,0.0
02/07/2023,02:29:28,0.001,0.0,0.0,0.0
02/07/2023,02:30:27,0.001,0.0,0.0,0.0
02/07/2023,02:31:27,-0.001,0.0,0.0,0.0
02/07/2023,02:32:27,0.001,0.0,0.0,0.0
02/07/2023,02:33:28,0.000,0.0,0.0,0.0
02/07/2023,02:34:28,0.001,0.0,0.0,0.0
02/07/2023,02:35:27,-0.000,0.0,0.0,0.0
02/07/2023,02:36:28,0.001,0.0,0.0,0.0
02/07/2023,02:37:27,0.001,0.0,0.0,0.0
02/07/2023,02:38:28,0.000,0.0,0.0,0.0
02/07/2023,02:39:28,0.000,0.0,0.0,0.0
02/07/2023,02:40:27,0.000,0.0,0.0,0.0
02/07/2023,02:41:27,0.001,0.0,0.0,0.0
02/07/2023,02:42:27,0.000,0.0,0.0,0.0
02/07/2023,02:43:27,-0.001,0.0,0.0,0.0
02/07/2023,02:44:28,-0.000,0.0,0.0,0.0
02/07/2023,02:45:28,0.000,0.0,0.0,0.0
02/07/2023,02:46:28,0.000,0.0,0.0,0.0
02/07/2023,02:47:27,0.001,0.0,0.0,0.0
02/07/2023,02:48:28,0.001,0.0,0.0,0.0
02/07/2023,02:49:27,0.000,0.0,0.0,0.0
02/07/2023,02:50:28,0.000,0.0,0.0,0.0
02/07/2023,02:51:27,-0.001,0.0,0.0,0.0
02/07/2023,02:52:28,0.000,0.0,0.0,0.0
02/07/2023,02:53:28,0.000,0.0,0.0,0.0
02/07/2023,02:54:27,0.000,0.0,0.0,0.0
02/07/2023,02:55:28,0.000,0.0,0.0,0.0
02/07/2023,02:56:28,0.001,0.0,0.0,0.0
02/07/2023,02:57:27,0.000,0.0,0.0,0.0
02/07/2023,02:58:27,0.000,0.0,0.0,0.0
02/07/2023,02:59:27,0.000,0.0,0.0,0.0
02/07/2023,03:00:27,0.000,0.0,0.0,0.0
02/07/2023,03:01:27,-0.001,0.0,0.0,0.0
02/07/2023,03:02:27,-0.000,0.0,0.0,0.0
02/07/2023,03:03:27,0.000,0.0,0.0,0.0
02/07/2023,03:04:27,0.000,0.0,0.0,0.0
02/07/2023,03:05:28,-0.000,0.0,0.0,0.0
02/07/2023,03:06:28,0.000,0.0,0.0,0.0
02/07/2023,03:07:27,-0.000,0.0,0.0,0.0
02/07/2023,03:08:32,0.001,0.0,0.0,0.0
02/07/2023,03:09:28,0.000,0.0,0.0,0.0
02/07/2023,03:10:28,0.001,0.0,0.0,0.0
02/07/2023,03:11:28,0.001,0.0,0.0,0.0
02/07/2023,03:12:27,0.000,0.0,0.0,0.0
02/07/2023,03:13:28,0.000,0.0,0.0,0.0
02/07/2023,03:14:28,0.001,0.0,0.0,0.0
02/07/2023,03:15:28,0.001,0.0,0.0,0.0
02/07/2023,03:16:28,0.001,0.0,0.0,0.0
02/07/2023,03:17:28,0.001,0.0,0.0,0.0
02/07/2023,03:18:27,0.001,0.0,0.0,0.0
02/07/2023,03:19:27,-0.000,0.0,0.0,0.0
02/07/2023,03:20:28,0.001,0.0,0.0,0.0
02/07/2023,03:21:26,0.000,0.0,0.0,0.0
02/07/2023,03:22:27,0.000,0.0,0.0,0.0
02/07/2023,03:23:28,0.002,0.0,0.0,0.0
02/07/2023,03:24:27,0.001,0.0,0.0,0.0
02/07/2023,03:25:28,0.001,0.0,0.0,0.0
02/07/2023,03:26:28,0.002,0.0,0.0,0.0
02/07/2023,03:27:27,0.001,0.0,0.0,0.0
02/07/2023,03:28:28,0.000,0.0,0.0,0.0
02/07/2023,03:29:27,0.000,0.0,0.0,0.0
02/07/2023,03:30:28,-0.000,0.0,0.0,0.0
02/07/2023,03:31:27,0.000,0.0,0.0,0.0
02/07/2023,03:32:28,0.001,0.0,0.0,0.0
02/07/2023,03:33:28,0.001,0.0,0.0,0.0
02/07/2023,03:34:27,0.001,0.0,0.0,0.0
02/07/2023,03:35:28,0.001,0.0,0.0,0.0
02/07/2023,03:36:28,0.001,0.0,0.0,0.0
02/07/2023,03:37:28,0.001,0.0,0.0,0.0
02/07/2023,03:38:27,0.002,0.0,0.0,0.0
02/07/2023,03:39:27,0.000,0.0,0.0,0.0
02/07/2023,03:40:28,0.001,0.0,0.0,0.0
02/07/2023,03:41:27,0.002,0.0,0.0,0.0
02/07/2023,03:42:28,0.001,0.0,0.0,0.0
02/07/2023,03:43:27,0.002,0.0,0.0,0.0
02/07/2023,03:44:28,0.002,0.0,0.0,0.0
02/07/2023,03:45:28,0.003,0.0,0.0,0.0
02/07/2023,03:46:27,0.001,0.0,0.0,0.0
02/07/2023,03:47:28,0.003,0.0,0.0,0.0
02/07/2023,03:48:28,0.003,0.0,0.0,0.0
02/07/2023,03:49:27,0.002,0.0,0.0,0.0
02/07/2023,03:50:28,0.003,0.0,0.0,0.0
02/07/2023,03:51:28,0.003,0.0,0.0,0.0
02/07/2023,03:52:27,0.003,0.0,0.0,0.0
02/07/2023,03:53:27,0.003,0.0,0.0,0.0
02/07/2023,03:54:27,0.003,0.0,0.0,0.0
02/07/2023,03:55:28,0.004,0.0,0.0,0.0
02/07/2023,03:56:28,0.004,0.0,0.0,0.0
02/07/2023,03:57:27,0.004,0.0,0.0,0.0
02/07/2023,03:58:28,0.004,0.0,0.0,0.0
02/07/2023,03:59:28,0.003,0.0,0.0,0.0
02/07/2023,04:00:27,0.005,0.0,0.0,0.0
02/07/2023,04:01:28,0.005,0.0,0.0,0.0
02/07/2023,04:02:28,0.005,0.0,0.0,0.0
02/07/2023,04:03:27,0.007,0.0,0.0,0.0
02/07/2023,04:04:28,0.006,0.0,0.0,0.0
02/07/2023,04:05:27,0.006,0.0,0.0,0.0
02/07/2023,04:06:28,0.006,0.0,0.0,0.0
02/07/2023,04:07:28,0.007,0.0,0.0,0.0
02/07/2023,04:08:27,0.006,0.0,0.0,0.0
02/07/2023,04:09:28,0.007,0.0,0.0,0.0
02/07/2023,04:10:28,0.007,0.0,0.001,0.001
02/07/2023,04:11:28,0.008,0.0,0.001,0.0
02/07/2023,04:12:27,0.008,0.0,0.001,0.0
02/07/2023,04:13:27,0.008,0.0,0.001,0.0
02/07/2023,04:14:28,0.009,0.0,0.001,0.0
02/07/2023,04:15:27,0.009,0.0,0.001,0.0
02/07/2023,04:16:27,0.009,0.0,0.001,0.0
02/07/2023,04:17:27,0.009,0.0,0.002,0.001
02/07/2023,04:18:27,0.010,0.0,0.002,0.0
02/07/2023,04:19:28,0.010,0.0,0.002,0.0
02/07/2023,04:20:27,0.011,0.0,0.002,0.0
02/07/2023,04:21:28,0.011,0.0,0.002,0.0
02/07/2023,04:22:28,0.012,0.0,0.002,0.0
02/07/2023,04:23:28,0.012,0.0,0.003,0.001
02/07/2023,04:24:31,0.012,0.0,0.003,0.0
02/07/2023,04:25:29,0.013,0.0,0.003,0.0
02/07/2023,04:26:27,0.013,0.0,0.003,0.0
02/07/2023,04:27:27,0.013,0.0,0.003,0.0
02/07/2023,04:28:28,0.015,0.0,0.004,0.001
02/07/2023,04:29:28,0.014,0.0,0.004,0.0
02/07/2023,04:30:27,0.015,0.0,0.004,0.0
02/07/2023,04:31:28,0.015,0.0,0.004,0.0
02/07/2023,04:32:28,0.015,0.0,0.005,0.001
02/07/2023,04:33:28,0.016,0.0,0.005,0.0
02/07/2023,04:34:27,0.017,0.0,0.005,0.0
02/07/2023,04:35:27,0.017,0.0,0.006,0.001
02/07/2023,04:36:27,0.019,0.0,0.006,0.0
02/07/2023,04:37:28,0.020,0.0,0.006,0.0
02/07/2023,04:38:28,0.019,0.0,0.006,0.0
02/07/2023,04:39:28,0.020,0.0,0.007,0.001
02/07/2023,04:40:28,0.020,0.0,0.007,0.0
02/07/2023,04:41:27,0.021,0.0,0.007,0.0
02/07/2023,04:42:27,0.022,0.0,0.008,0.001
02/07/2023,04:43:27,0.021,0.0,0.008,0.0
02/07/2023,04:44:28,0.024,0.0,0.009,0.001
02/07/2023,04:45:27,0.024,0.0,0.009,0.0
02/07/2023,04:46:28,0.024,0.0,0.009,0.0
02/07/2023,04:47:27,0.025,0.0,0.01,0.001
02/07/2023,04:48:28,0.026,0.0,0.01,0.0
02/07/2023,04:49:27,0.026,0.0,0.011,0.001
02/07/2023,04:50:28,0.028,0.0,0.011,0.0
02/07/2023,04:51:27,0.028,0.0,0.011,0.0
02/07/2023,04:52:27,0.029,0.0,0.012,0.001
02/07/2023,04:53:27,0.030,0.0,0.012,0.0
02/07/2023,04:54:27,0.031,0.0,0.013,0.001
02/07/2023,04:55:28,0.032,0.0,0.013,0.0
02/07/2023,04:56:28,0.033,0.0,0.014,0.001
02/07/2023,04:57:27,0.034,0.0,0.015,0.001
02/07/2023,04:58:28,0.034,0.0,0.015,0.0
02/07/2023,04:59:28,0.033,0.0,0.016,0.001
02/07/2023,05:00:28,0.035,0.0,0.016,0.0
02/07/2023,05:01:28,0.036,0.0,0.017,0.001
02/07/2023,05:02:28,0.036,0.0,0.017,0.0
02/07/2023,05:03:27,0.038,0.0,0.018,0.001
02/07/2023,05:04:28,0.039,0.0,0.019,0.001
02/07/2023,05:05:28,0.041,0.0,0.019,0.0
02/07/2023,05:06:28,0.041,0.0,0.02,0.001
02/07/2023,05:07:27,0.041,0.0,0.021,0.001
02/07/2023,05:08:28,0.044,0.0,0.021,0.0
02/07/2023,05:09:27,0.045,0.0,0.022,0.001
02/07/2023,05:10:28,0.046,0.0,0.023,0.001
02/07/2023,05:11:28,0.048,0.0,0.024,0.001
02/07/2023,05:12:27,0.049,0.0,0.025,0.001
02/07/2023,05:13:28,0.050,0.0,0.025,0.0
02/07/2023,05:14:28,0.050,0.0,0.026,0.001
02/07/2023,05:15:27,0.052,0.0,0.027,0.001
02/07/2023,05:16:28,0.053,0.0,0.028,0.001
02/07/2023,05:17:28,0.055,0.0,0.029,0.001
02/07/2023,05:18:27,0.055,0.0,0.03,0.001
02/07/2023,05:19:28,0.056,0.0,0.031,0.001
02/07/2023,05:20:27,0.058,0.0,0.032,0.001
02/07/2023,05:21:28,0.058,0.0,0.033,0.001
02/07/2023,05:22:28,0.060,0.0,0.034,0.001
02/07/2023,05:23:27,0.060,0.0,0.035,0.001
02/07/2023,05:24:27,0.062,0.0,0.036,0.001
02/07/2023,05:25:28,0.065,0.0,0.037,0.001
02/07/2023,05:26:28,0.067,0.0,0.038,0.001
02/07/2023,05:27:28,0.067,0.0,0.039,0.001
02/07/2023,05:28:27,0.070,0.0,0.04,0.001
02/07/2023,05:29:28,0.072,0.0,0.041,0.001
02/07/2023,05:30:28,0.073,0.0,0.042,0.001
02/07/2023,05:31:27,0.075,0.0,0.044,0.002
02/07/2023,05:32:28,0.077,0.0,0.045,0.001
02/07/2023,05:33:27,0.079,0.0,0.046,0.001
02/07/2023,05:34:28,0.081,0.0,0.048,0.002
02/07/2023,05:35:28,0.084,0.0,0.049,0.001
02/07/2023,05:36:27,0.086,0.0,0.05,0.001
02/07/2023,05:37:28,0.090,0.0,0.052,0.002
02/07/2023,05:38:28,0.092,0.0,0.053,0.001
02/07/2023,05:39:27,0.094,0.0,0.055,0.002
02/07/2023,05:40:28,0.096,0.0,0.057,0.002
02/07/2023,05:41:28,0.099,0.0,0.058,0.001
02/07/2023,05:42:28,0.101,0.0,0.06,0.002
02/07/2023,05:43:27,0.102,0.0,0.062,0.002
02/07/2023,05:44:27,0.103,0.0,0.063,0.001
02/07/2023,05:45:27,0.107,0.0,0.065,0.002
02/07/2023,05:46:27,0.111,0.0,0.067,0.002
02/07/2023,05:47:28,0.112,0.0,0.069,0.002
02/07/2023,05:48:27,0.116,0.0,0.071,0.002
02/07/2023,05:49:28,0.118,0.0,0.072,0.001
02/07/2023,05:50:28,0.120,0.0,0.074,0.002
02/07/2023,05:51:28,0.123,0.0,0.076,0.002
02/07/2023,05:52:28,0.126,0.0,0.079,0.003
02/07/2023,05:53:28,0.130,0.0,0.081,0.002
02/07/2023,05:54:28,0.131,0.0,0.083,0.002
02/07/2023,05:55:27,0.133,0.0,0.085,0.002
02/07/2023,05:56:28,0.136,0.0,0.087,0.002
02/07/2023,05:57:27,0.139,0.0,0.09,0.003
02/07/2023,05:58:28,0.141,0.0,0.092,0.002
02/07/2023,05:59:28,0.144,0.0,0.094,0.002
02/07/2023,06:00:27,0.146,0.0,0.097,0.003
02/07/2023,06:01:28,0.149,0.0,0.099,0.002
02/07/2023,06:02:28,0.151,0.0,0.102,0.003
02/07/2023,06:03:28,0.153,0.0,0.104,0.002
02/07/2023,06:04:27,0.157,0.0,0.107,0.003
02/07/2023,06:05:28,0.160,0.0,0.109,0.002
02/07/2023,06:06:27,0.164,0.0,0.112,0.003
02/07/2023,06:07:28,0.166,0.0,0.115,0.003
02/07/2023,06:08:28,0.166,0.0,0.118,0.003
02/07/2023,06:09:27,0.162,0.0,0.12,0.002
02/07/2023,06:10:28,0.163,0.0,0.123,0.003
02/07/2023,06:11:28,0.169,0.0,0.126,0.003
02/07/2023,06:12:27,0.185,0.0,0.129,0.003
02/07/2023,06:13:27,0.188,0.0,0.132,0.003
02/07/2023,06:14:27,0.193,0.0,0.135,0.003
02/07/2023,06:15:28,0.195,0.0,0.138,0.003
02/07/2023,06:16:28,0.200,0.0,0.142,0.004
02/07/2023,06:17:28,0.204,0.0,0.145,0.003
02/07/2023,06:18:27,0.210,0.0,0.148,0.003
02/07/2023,06:19:28,0.213,0.0,0.152,0.004
02/07/2023,06:20:28,0.216,0.0,0.156,0.004
02/07/2023,06:21:27,0.221,1.0,0.159,0.003
02/07/2023,06:22:28,0.221,1.0,0.163,0.004
02/07/2023,06:23:27,0.226,1.0,0.167,0.004
02/07/2023,06:24:28,0.229,1.0,0.17,0.003
02/07/2023,06:25:28,0.231,1.0,0.174,0.004
02/07/2023,06:26:27,0.237,1.0,0.178,0.004
02/07/2023,06:27:28,0.241,1.0,0.182,0.004
02/07/2023,06:28:28,0.245,1.0,0.186,0.004
02/07/2023,06:29:28,0.251,1.0,0.19,0.004
02/07/2023,06:30:27,0.256,1.0,0.195,0.005
02/07/2023,06:31:27,0.261,1.0,0.199,0.004
02/07/2023,06:32:28,0.240,1.0,0.203,0.004
02/07/2023,06:33:28,0.235,1.0,0.207,0.004
02/07/2023,06:34:28,0.232,1.0,0.211,0.004
02/07/2023,06:35:28,0.226,1.0,0.215,0.004
02/07/2023,06:36:27,0.222,1.0,0.219,0.004
02/07/2023,06:37:28,0.221,1.0,0.222,0.003
02/07/2023,06:38:28,0.225,1.0,0.226,0.004
02/07/2023,06:39:27,0.230,1.0,0.23,0.004
02/07/2023,06:40:28,0.239,1.0,0.234,0.004
02/07/2023,06:41:28,0.250,1.0,0.238,0.004
02/07/2023,06:42:28,0.278,1.0,0.242,0.004
02/07/2023,06:43:28,0.270,1.0,0.247,0.005
02/07/2023,06:44:28,0.274,1.0,0.251,0.004
02/07/2023,06:45:28,0.286,1.0,0.256,0.005
02/07/2023,06:46:27,0.284,1.0,0.261,0.005
02/07/2023,06:47:28,0.309,1.0,0.266,0.005
02/07/2023,06:48:28,0.287,1.0,0.27,0.004
02/07/2023,06:49:27,0.288,1.0,0.275,0.005
02/07/2023,06:50:28,0.287,1.0,0.28,0.005
02/07/2023,06:51:28,0.290,1.0,0.285,0.005
02/07/2023,06:52:28,0.296,1.0,0.29,0.005
02/07/2023,06:53:28,0.299,1.0,0.295,0.005
02/07/2023,06:54:28,0.295,1.0,0.3,0.005
02/07/2023,06:55:28,0.296,1.0,0.305,0.005
02/07/2023,06:56:28,0.297,1.0,0.309,0.004
02/07/2023,06:57:28,0.298,1.0,0.314,0.005
02/07/2023,06:58:28,0.300,1.0,0.319,0.005
02/07/2023,06:59:28,0.302,1.0,0.324,0.005
02/07/2023,07:00:27,0.308,1.0,0.329,0.005
02/07/2023,07:01:28,0.315,1.0,0.335,0.006
02/07/2023,07:02:29,0.321,1.0,0.34,0.005
02/07/2023,07:03:28,0.331,1.0,0.345,0.005
02/07/2023,07:04:27,0.343,1.0,0.351,0.006
02/07/2023,07:05:28,0.347,1.0,0.357,0.006
02/07/2023,07:06:28,0.443,1.0,0.363,0.006
02/07/2023,07:07:28,0.410,1.0,0.37,0.007
02/07/2023,07:08:28,0.431,1.0,0.377,0.007
02/07/2023,07:09:28,0.451,1.0,0.384,0.007
02/07/2023,07:10:27,0.422,1.0,0.391,0.007
02/07/2023,07:11:28,0.464,1.0,0.399,0.008
02/07/2023,07:12:28,0.449,1.0,0.406,0.007
02/07/2023,07:13:27,0.477,1.0,0.414,0.008
02/07/2023,07:14:28,0.456,1.0,0.421,0.007
02/07/2023,07:15:28,0.497,1.0,0.429,0.008
02/07/2023,07:16:27,0.497,1.0,0.437,0.008
02/07/2023,07:17:28,0.489,1.0,0.446,0.009
02/07/2023,07:18:27,0.518,1.0,0.454,0.008
02/07/2023,07:19:28,0.523,1.0,0.463,0.009
02/07/2023,07:20:28,0.533,1.0,0.471,0.008
02/07/2023,07:21:28,0.536,1.0,0.48,0.009
02/07/2023,07:22:28,0.542,1.0,0.489,0.009
02/07/2023,07:23:27,0.544,1.0,0.498,0.009
02/07/2023,07:24:28,0.556,1.0,0.507,0.009
02/07/2023,07:25:28,0.567,1.0,0.517,0.01
02/07/2023,07:26:27,0.564,1.0,0.526,0.009
02/07/2023,07:27:28,0.556,1.0,0.536,0.01
02/07/2023,07:28:28,0.584,1.0,0.545,0.009
02/07/2023,07:29:27,0.591,1.0,0.555,0.01
02/07/2023,07:30:28,0.588,1.0,0.565,0.01
02/07/2023,07:31:28,0.603,1.0,0.575,0.01
02/07/2023,07:32:28,0.616,1.0,0.585,0.01
02/07/2023,07:33:30,0.624,1.0,0.596,0.011
02/07/2023,07:34:28,0.633,1.0,0.606,0.01
02/07/2023,07:35:28,0.639,1.0,0.616,0.01
02/07/2023,07:36:27,0.646,1.0,0.627,0.011
02/07/2023,07:37:27,0.651,1.0,0.638,0.011
02/07/2023,07:38:28,0.662,2.0,0.649,0.011
02/07/2023,07:39:27,0.667,2.0,0.66,0.011
02/07/2023,07:40:28,0.675,2.0,0.671,0.011
02/07/2023,07:41:28,0.689,2.0,0.682,0.011
02/07/2023,07:42:28,0.699,2.0,0.694,0.012
02/07/2023,07:43:28,0.705,2.0,0.706,0.012
02/07/2023,07:44:28,0.710,2.0,0.718,0.012
02/07/2023,07:45:28,0.721,2.0,0.729,0.011
02/07/2023,07:46:27,0.728,2.0,0.742,0.013
02/07/2023,07:47:28,0.733,2.0,0.754,0.012
02/07/2023,07:48:27,0.748,2.0,0.766,0.012
02/07/2023,07:49:28,0.749,2.0,0.779,0.013
02/07/2023,07:50:28,0.764,2.0,0.791,0.012
02/07/2023,07:51:27,0.776,2.0,0.804,0.013
02/07/2023,07:52:28,0.790,2.0,0.817,0.013
02/07/2023,07:53:28,0.801,2.0,0.83,0.013
02/07/2023,07:54:28,0.814,2.0,0.844,0.014
02/07/2023,07:55:28,0.824,2.0,0.857,0.013
02/07/2023,07:56:28,0.829,2.0,0.871,0.014
02/07/2023,07:57:28,0.831,2.0,0.885,0.014
02/07/2023,07:58:28,0.840,2.0,0.899,0.014
02/07/2023,07:59:27,0.846,2.0,0.913,0.014
02/07/2023,08:00:28,0.862,2.0,0.927,0.014
02/07/2023,08:01:28,0.877,2.0,0.942,0.015
02/07/2023,08:02:28,0.882,2.0,0.957,0.015
02/07/2023,08:03:32,0.899,2.0,0.972,0.015
02/07/2023,08:04:28,0.920,2.0,0.986,0.014
02/07/2023,08:05:28,0.928,2.0,1.002,0.016
02/07/2023,08:06:27,0.926,2.0,1.017,0.015
02/07/2023,08:07:28,0.942,2.0,1.033,0.016
02/07/2023,08:08:28,0.957,2.0,1.049,0.016
02/07/2023,08:09:27,0.966,2.0,1.065,0.016
02/07/2023,08:10:29,0.971,2.0,1.08,0.015
02/07/2023,08:11:29,0.925,2.0,1.094,0.014
02/07/2023,08:12:28,0.987,2.0,1.111,0.017
02/07/2023,08:13:28,1.002,2.0,1.127,0.016
02/07/2023,08:14:27,1.017,2.0,1.144,0.017
02/07/2023,08:15:28,1.029,2.0,1.161,0.017
02/07/2023,08:16:28,1.034,2.0,1.178,0.017
02/07/2023,08:17:27,1.050,2.0,1.196,0.018
02/07/2023,08:18:28,1.067,2.0,1.213,0.017
02/07/2023,08:19:27,0.948,2.0,1.231,0.018
02/07/2023,08:20:28,1.098,3.0,1.246,0.015
02/07/2023,08:21:28,1.126,3.0,1.264,0.018
02/07/2023,08:22:28,1.116,3.0,1.283,0.019
02/07/2023,08:23:28,0.724,2.0,1.299,0.016
02/07/2023,08:24:28,0.693,2.0,1.311,0.012
02/07/2023,08:25:28,0.717,2.0,1.322,0.011
02/07/2023,08:26:27,0.758,2.0,1.335,0.013
02/07/2023,08:27:28,1.107,3.0,1.348,0.013
02/07/2023,08:28:28,0.874,2.0,1.365,0.017
02/07/2023,08:29:27,0.807,2.0,1.379,0.014
02/07/2023,08:30:28,0.847,2.0,1.392,0.013
02/07/2023,08:31:28,1.132,3.0,1.409,0.017
02/07/2023,08:32:27,0.763,2.0,1.423,0.014
02/07/2023,08:33:28,0.748,2.0,1.436,0.013
02/07/2023,08:34:28,0.775,2.0,1.448,0.012
02/07/2023,08:35:28,0.669,2.0,1.46,0.012
02/07/2023,08:36:28,0.710,2.0,1.471,0.011
02/07/2023,08:37:27,0.544,1.0,1.481,0.01
02/07/2023,08:38:27,0.504,1.0,1.49,0.009
02/07/2023,08:39:28,0.494,1.0,1.498,0.008
02/07/2023,08:40:28,0.499,1.0,1.506,0.008
02/07/2023,08:41:28,0.498,1.0,1.515,0.009
02/07/2023,08:42:28,0.494,1.0,1.523,0.008
02/07/2023,08:43:28,0.487,1.0,1.531,0.008
02/07/2023,08:44:28,0.516,1.0,1.539,0.008
02/07/2023,08:45:28,0.582,1.0,1.548,0.009
02/07/2023,08:46:27,0.649,1.0,1.559,0.011
02/07/2023,08:47:28,0.706,2.0,1.57,0.011
02/07/2023,08:48:28,0.723,2.0,1.582,0.012
02/07/2023,08:49:28,0.746,2.0,1.594,0.012
02/07/2023,08:50:28,0.782,2.0,1.607,0.013
02/07/2023,08:51:27,0.831,2.0,1.62,0.013
02/07/2023,08:52:28,0.932,2.0,1.635,0.015
02/07/2023,08:53:28,0.991,2.0,1.651,0.016
02/07/2023,08:54:28,1.090,3.0,1.668,0.017
02/07/2023,08:55:28,1.214,3.0,1.687,0.019
02/07/2023,08:56:28,0.910,2.0,1.703,0.016
02/07/2023,08:57:28,0.653,2.0,1.715,0.012
02/07/2023,08:58:28,0.601,1.0,1.725,0.01
02/07/2023,08:59:28,0.586,1.0,1.735,0.01
02/07/2023,09:00:28,0.612,1.0,1.745,0.01
02/07/2023,09:01:28,0.665,2.0,1.756,0.011
02/07/2023,09:02:27,0.739,2.0,1.767,0.011
02/07/2023,09:03:28,0.810,2.0,1.78,0.013
02/07/2023,09:04:28,0.874,2.0,1.794,0.014
02/07/2023,09:05:28,0.946,2.0,1.809,0.015
02/07/2023,09:06:28,0.967,2.0,1.826,0.017
02/07/2023,09:07:28,1.166,3.0,1.843,0.017
02/07/2023,09:08:28,1.403,3.0,1.863,0.02
02/07/2023,09:09:28,1.656,4.0,1.889,0.026
02/07/2023,09:10:28,1.525,4.0,1.915,0.026
02/07/2023,09:11:28,1.675,4.0,1.943,0.028
02/07/2023,09:12:27,1.438,3.0,1.97,0.027
02/07/2023,09:13:28,1.704,4.0,1.999,0.029
02/07/2023,09:14:28,1.758,4.0,2.028,0.029
02/07/2023,09:15:28,1.252,3.0,2.053,0.025
02/07/2023,09:16:28,1.507,3.0,2.08,0.027
02/07/2023,09:17:28,1.689,4.0,2.109,0.029
02/07/2023,09:18:28,1.812,4.0,2.138,0.029
02/07/2023,09:19:28,1.822,4.0,2.169,0.031
02/07/2023,09:20:28,1.668,4.0,2.197,0.028
02/07/2023,09:21:28,0.889,2.0,2.216,0.019
02/07/2023,09:22:28,0.694,2.0,2.23,0.014
02/07/2023,09:23:28,0.550,1.0,2.24,0.01
02/07/2023,09:24:28,0.482,1.0,2.248,0.008
02/07/2023,09:25:27,0.454,1.0,2.256,0.008
02/07/2023,09:26:28,0.451,1.0,2.263,0.007
02/07/2023,09:27:28,0.463,1.0,2.271,0.008
02/07/2023,09:28:28,0.498,1.0,2.279,0.008
02/07/2023,09:29:28,0.563,1.0,2.288,0.009
02/07/2023,09:30:27,0.647,1.0,2.298,0.01
02/07/2023,09:31:28,0.715,2.0,2.309,0.011
02/07/2023,09:32:28,0.755,2.0,2.322,0.013
02/07/2023,09:33:28,0.753,2.0,2.334,0.012
02/07/2023,09:34:28,0.743,2.0,2.347,0.013
02/07/2023,09:35:28,0.752,2.0,2.359,0.012
02/07/2023,09:36:28,0.787,2.0,2.372,0.013
02/07/2023,09:37:28,0.838,2.0,2.386,0.014
02/07/2023,09:38:28,0.860,2.0,2.4,0.014
02/07/2023,09:39:28,0.867,2.0,2.414,0.014
02/07/2023,09:40:28,0.857,2.0,2.429,0.015
02/07/2023,09:41:28,0.796,2.0,2.442,0.013
02/07/2023,09:42:28,0.716,2.0,2.455,0.013
02/07/2023,09:43:28,0.665,2.0,2.466,0.011
02/07/2023,09:44:28,0.639,1.0,2.477,0.011
02/07/2023,09:45:29,0.638,1.0,2.488,0.011
02/07/2023,09:46:28,0.658,2.0,2.499,0.011
02/07/2023,09:47:29,0.709,2.0,2.51,0.011
02/07/2023,09:48:28,0.779,2.0,2.522,0.012
02/07/2023,09:49:28,0.864,2.0,2.536,0.014
02/07/2023,09:50:28,0.935,2.0,2.551,0.015
02/07/2023,09:51:28,0.951,2.0,2.567,0.016
02/07/2023,09:52:29,0.903,2.0,2.583,0.016
02/07/2023,09:53:28,0.834,2.0,2.597,0.014